Total_Precipitation_Accumulation
1.17 1.46 2.20 3.25 4.28 3.66 2.76 2.39 1.97 1.62 1.26 1.07 1.01 1.06 1.25 1.48 1.96 2.75 3.06 2.80 2.05 1.92 2.37 3.28 3.55 3.30 3.03 2.64 2.57 2.65 2.72 2.98 3.00 2.77 2.49 2.22 2.01 1.90 1.94 1.88 1.86 1.86 1.89 1.92 1.78 1.71 1.68 1.71 1.67
1.11 2.01 2.89 4.12 4.20 3.07 2.65 2.42 2.00 1.40 1.02 0.77 0.67 0.88 1.04 0.99 1.17 1.98 2.91 2.81 1.87 1.64 1.93 2.57 3.15 3.05 2.81 2.56 2.53 2.60 2.61 2.63 2.64 2.37 2.06 1.95 1.87 1.81 1.75 1.84 1.94 1.86 1.72 1.64 1.58 1.68 1.66 1.60 1.56
1.27 2.25 3.11 3.66 2.99 2.56 2.50 2.20 1.71 1.20 0.84 0.68 0.60 0.66 0.91 1.25 1.55 2.25 2.63 1.95 1.53 1.36 1.77 2.51 3.03 2.79 2.55 2.40 2.42 2.45 2.51 2.47 2.39 2.25 2.04 1.87 1.81 1.77 1.74 1.82 1.92 1.74 1.52 1.37 1.43 1.53 1.53 1.46 1.48
1.71 2.64 2.99 2.78 2.25 1.87 1.82 1.75 1.27 1.08 0.79 0.55 0.54 0.71 0.93 1.46 1.83 2.25 2.23 1.61 1.35 1.35 1.69 2.09 2.47 2.29 2.16 2.18 2.22 2.17 2.04 2.03 2.21 2.26 2.11 1.95 1.79 1.67 1.61 1.65 1.64 1.47 1.34 1.27 1.31 1.41 1.39 1.35 1.39
2.05 2.82 2.91 2.34 1.92 1.66 1.45 1.23 1.00 0.99 0.91 0.71 0.58 0.97 1.50 1.80 1.93 1.97 1.90 1.54 1.38 1.58 1.90 1.96 2.19 2.08 2.06 2.05 2.08 1.99 2.00 2.10 2.23 2.22 2.12 2.00 1.75 1.56 1.55 1.49 1.39 1.23 1.21 1.24 1.36 1.42 1.29 1.24 1.27
2.51 2.78 3.15 2.47 1.97 1.66 1.50 1.15 0.88 0.83 0.78 0.68 0.68 1.01 1.71 2.06 1.98 1.91 1.81 1.59 1.45 1.48 1.67 1.79 2.10 2.07 1.96 1.86 1.98 1.96 2.04 2.31 2.39 2.23 2.11 2.05 1.78 1.58 1.44 1.43 1.44 1.23 1.12 1.18 1.27 1.31 1.21 1.15 1.25
2.67 2.87 2.69 2.06 1.88 1.96 1.53 0.98 0.89 0.87 0.83 0.72 0.63 0.98 1.67 2.11 1.79 1.56 1.56 1.43 1.38 1.35 1.40 1.36 1.46 1.64 1.68 1.75 1.93 2.00 2.18 2.34 2.35 2.13 2.03 1.96 1.64 1.41 1.29 1.27 1.21 1.11 1.11 1.22 1.26 1.35 1.33 1.23 1.27
1.80 2.03 2.08 1.91 1.90 1.88 1.30 0.82 0.72 0.71 0.78 0.53 0.51 0.88 1.52 1.77 1.50 1.48 1.44 1.40 1.42 1.35 1.28 1.13 1.16 1.35 1.51 1.61 1.77 1.98 2.16 2.16 2.12 1.95 1.88 1.72 1.47 1.28 1.29 1.22 1.19 1.14 1.16 1.32 1.43 1.40 1.31 1.21 1.21
1.67 2.03 2.31 2.10 1.81 1.58 1.08 0.87 0.65 0.49 0.54 0.46 0.44 0.55 0.83 1.08 1.20 1.37 1.44 1.39 1.51 1.38 1.23 1.14 1.05 1.07 1.27 1.45 1.53 1.86 1.98 1.98 1.78 1.70 1.75 1.54 1.20 1.08 1.17 1.18 1.35 1.28 1.26 1.30 1.36 1.33 1.21 1.09 1.01
1.66 2.13 2.14 1.52 1.16 1.11 1.01 0.87 0.71 0.67 0.72 0.63 0.57 0.55 0.64 0.85 1.05 1.18 1.25 1.28 1.33 1.33 1.12 1.05 1.03 0.99 0.95 1.02 1.33 1.75 1.59 1.51 1.27 1.23 1.24 1.25 1.20 1.18 0.98 1.10 1.40 1.40 1.30 1.23 1.25 1.23 1.00 0.76 0.68
1.35 1.49 1.34 1.22 0.89 0.76 0.90 0.84 0.65 0.71 0.84 0.65 0.64 0.61 0.61 0.73 0.83 0.95 1.01 1.01 1.04 1.12 1.05 0.98 0.93 0.88 0.89 0.99 1.09 1.30 1.35 1.34 1.18 1.06 1.03 1.15 1.14 1.03 0.90 0.85 0.96 1.06 1.08 0.94 0.92 0.91 0.73 0.67 0.70
1.19 1.08 0.93 0.89 0.70 0.71 0.91 0.78 0.67 0.78 0.76 0.52 0.43 0.44 0.56 0.67 0.71 0.74 0.82 0.95 0.98 1.03 1.05 1.03 0.96 0.94 0.90 0.83 0.79 0.86 0.91 0.96 0.99 0.96 0.91 1.04 1.03 0.98 0.95 0.93 0.85 0.86 0.89 0.92 0.87 0.85 0.75 0.72 0.74
1.10 1.02 0.82 0.67 0.70 0.72 0.79 0.83 0.73 0.75 0.62 0.53 0.45 0.53 0.61 0.64 0.64 0.66 0.72 0.84 0.91 0.97 1.03 1.00 0.92 0.89 0.89 0.84 0.74 0.73 0.83 0.87 0.94 0.99 0.91 0.90 0.97 0.98 0.93 0.85 0.87 0.85 0.83 0.85 0.85 0.77 0.73 0.76 0.73
1.03 0.94 0.85 0.72 0.70 0.74 0.80 0.85 0.80 0.88 0.69 0.61 0.53 0.57 0.59 0.61 0.63 0.66 0.68 0.78 0.81 0.83 1.00 1.03 0.97 0.98 0.95 0.87 0.78 0.77 0.84 0.95 0.94 0.82 0.77 0.79 0.85 0.90 0.97 0.95 0.94 0.91 0.90 0.98 0.99 0.81 0.82 0.89 0.85
0.91 0.96 0.94 0.85 0.81 0.80 0.84 1.07 0.97 0.90 0.77 0.75 0.65 0.56 0.57 0.58 0.57 0.64 0.63 0.70 0.78 0.86 1.00 1.02 1.00 1.11 1.04 0.94 0.91 0.82 0.84 0.90 0.94 0.89 0.83 0.84 0.86 0.87 0.98 1.03 1.04 1.00 0.95 1.02 1.31 1.19 0.96 0.92 0.93
1.03 1.14 1.30 0.91 0.80 0.84 0.99 1.22 0.91 0.89 0.88 0.96 0.79 0.65 0.60 0.59 0.57 0.56 0.55 0.67 0.72 0.89 0.99 1.12 1.02 1.12 1.12 1.05 1.04 0.97 0.96 1.02 1.03 1.00 1.00 0.95 0.94 0.94 1.05 1.11 1.02 1.04 1.11 1.20 1.44 1.54 1.27 1.02 0.99
1.19 1.28 1.25 0.97 0.73 0.76 0.88 1.00 0.82 0.78 0.76 0.81 0.77 0.68 0.67 0.56 0.54 0.49 0.49 0.57 0.65 0.82 0.96 1.14 1.13 1.10 1.17 1.22 1.23 1.15 1.11 1.14 1.13 1.07 1.03 1.03 1.05 1.11 1.19 1.21 1.16 1.15 1.18 1.33 1.35 1.59 1.63 1.39 1.25
1.12 1.01 0.98 0.87 0.75 0.75 0.77 0.68 0.66 0.66 0.68 0.67 0.70 0.64 0.58 0.53 0.53 0.49 0.44 0.47 0.55 0.73 0.89 1.07 1.22 1.32 1.39 1.43 1.49 1.46 1.34 1.25 1.28 1.28 1.25 1.28 1.35 1.29 1.33 1.38 1.38 1.47 1.50 1.53 1.48 1.67 1.80 1.61 1.56
0.77 0.78 0.83 0.72 0.61 0.64 0.59 0.52 0.56 0.60 0.63 0.58 0.61 0.61 0.49 0.44 0.48 0.47 0.42 0.45 0.49 0.62 0.74 0.94 1.32 1.75 1.94 1.83 1.82 1.87 1.92 1.85 1.74 1.71 1.69 1.76 1.76 1.75 1.78 1.76 1.74 1.71 1.69 1.78 1.78 2.06 2.43 1.97 1.71
0.72 0.78 0.82 0.74 0.52 0.51 0.51 0.46 0.46 0.52 0.54 0.51 0.47 0.50 0.45 0.42 0.40 0.37 0.35 0.40 0.45 0.63 0.80 0.94 1.25 1.70 1.92 2.05 2.15 2.34 2.49 2.34 2.20 2.19 2.15 2.22 2.24 2.41 2.33 2.31 2.31 2.24 2.26 2.25 2.17 2.32 2.68 2.33 2.05
0.72 0.74 0.74 0.68 0.52 0.48 0.47 0.50 0.45 0.49 0.44 0.42 0.42 0.43 0.39 0.33 0.32 0.33 0.33 0.38 0.43 0.57 0.73 0.88 1.10 1.40 1.75 2.03 2.25 2.51 2.73 2.71 2.59 2.43 2.40 2.47 2.54 2.68 2.77 2.74 2.80 2.66 2.56 2.61 2.53 2.50 2.74 2.81 2.51
0.75 0.51 0.47 0.47 0.61 0.63 0.48 0.74 0.53 0.51 0.47 0.41 0.41 0.41 0.39 0.33 0.32 0.36 0.35 0.38 0.43 0.52 0.64 0.83 1.04 1.29 1.53 1.75 2.12 2.55 2.83 2.93 2.83 2.74 2.69 2.68 2.69 2.72 2.92 2.92 3.04 2.89 2.80 2.79 2.69 2.51 2.70 3.06 3.02
0.57 0.44 0.44 0.46 0.56 0.53 0.37 0.53 0.52 0.45 0.48 0.45 0.42 0.39 0.38 0.34 0.35 0.39 0.41 0.45 0.52 0.58 0.65 0.80 0.97 1.22 1.47 1.68 2.01 2.40 2.65 2.84 2.96 2.79 2.66 2.69 2.69 2.71 2.85 3.00 3.10 2.96 2.85 2.80 2.90 2.81 2.78 2.75 2.80
0.45 0.49 0.48 0.51 0.58 0.63 0.31 0.45 0.58 0.43 0.40 0.42 0.39 0.34 0.36 0.39 0.42 0.46 0.56 0.63 0.68 0.65 0.71 0.84 0.97 1.13 1.30 1.43 1.64 1.85 2.18 2.40 2.71 2.69 2.61 2.73 2.69 2.61 2.55 2.72 2.96 2.90 2.90 2.90 2.99 3.05 2.99 2.99 3.03
0.44 0.70 0.93 0.95 0.91 0.60 0.25 0.41 0.56 0.43 0.35 0.35 0.36 0.35 0.38 0.41 0.45 0.53 0.68 0.79 0.84 0.75 0.73 0.82 0.99 1.08 1.16 1.26 1.35 1.48 1.70 1.82 2.17 2.49 2.46 2.36 2.40 2.45 2.51 2.55 2.56 2.57 2.66 2.82 3.03 3.01 2.93 2.93 3.02
0.38 0.61 0.98 1.13 0.98 0.62 0.41 0.58 0.63 0.47 0.39 0.34 0.33 0.36 0.40 0.45 0.52 0.71 0.89 0.97 0.98 0.89 0.83 0.89 1.06 1.14 1.17 1.20 1.25 1.34 1.42 1.46 1.62 1.83 1.93 1.93 1.97 2.20 2.32 2.43 2.40 2.41 2.49 2.60 2.72 2.74 2.79 2.75 2.72
0.36 0.43 0.49 0.71 0.67 0.69 0.62 0.71 0.63 0.43 0.41 0.41 0.43 0.48 0.59 0.67 0.73 0.88 1.05 1.15 1.06 0.95 0.88 0.95 1.07 1.22 1.25 1.28 1.34 1.41 1.40 1.34 1.42 1.43 1.55 1.72 1.74 1.80 1.93 2.02 2.14 2.26 2.32 2.41 2.57 2.63 2.62 2.64 2.64
0.27 0.34 0.52 0.77 0.99 1.00 0.79 0.79 0.79 0.65 0.58 0.54 0.58 0.63 0.75 0.85 0.93 1.03 1.19 1.25 1.13 1.01 0.93 0.99 1.10 1.22 1.42 1.55 1.49 1.45 1.51 1.54 1.73 1.74 1.58 1.51 1.65 1.69 1.74 1.80 1.89 2.05 2.16 2.25 2.33 2.44 2.55 2.54 2.55
0.32 0.43 0.59 0.80 0.84 1.13 1.26 1.14 0.88 0.80 0.77 0.78 0.82 0.85 0.91 1.03 1.04 1.04 1.17 1.26 1.17 1.00 0.94 0.94 1.00 1.12 1.25 1.30 1.35 1.32 1.40 1.51 1.76 1.95 1.91 1.71 1.66 1.65 1.64 1.62 1.67 1.82 1.94 2.05 2.17 2.25 2.24 2.24 2.38
0.40 0.53 0.77 1.17 1.11 1.01 1.23 1.21 0.84 0.77 0.80 0.80 0.81 0.81 0.85 0.95 0.95 1.00 1.06 1.03 0.96 0.84 0.78 0.79 0.82 0.95 1.09 1.11 1.18 1.25 1.28 1.38 1.50 1.61 1.64 1.56 1.43 1.38 1.41 1.46 1.46 1.53 1.73 1.87 1.89 1.94 1.93 1.96 2.08